Andres Falcao

Scout - Leones
17 Feb 2028
Thursday
Process

Personality

Adaptability (1) Ambition (8) Controversy (17) Loyalty (13) Pressure (8) Professionalism (18) Sportsmanship (18) Temperament (12)

Profile

Coaching Style Democratic
License Continental Pro
Determination 5
Man Management 9
Motivating 6
Discipline 10
Job Satisfaction
32%
Fatigue
0%
Role Scout
Wage 10.1K p/w
Contract 14.03.2029

Performance

Behaviour Good
Training Effectiveness
15%
Player Development
15%
Injury Prevention
40%
Tactical Implementation
40%

Recent Events

Attended a recruitment meeting 7d ago
Attended a recruitment meeting 7d ago
Attended a recruitment meeting 14d ago
Attended a recruitment meeting 14d ago
Attended a recruitment meeting 21d ago
Attended a recruitment meeting 21d ago
Attending professional development 28d ago
Attending professional development 28d ago

Currently Monitoring

91
Player Club Status Ability Confidence Watched Last Observed Latest Vote
Fernando Mimbacas Juventud Active 115 / 120 40% 1 27.12.2027 -
Brayan Alcócer Rubin Active 96 / 105 40% 1 27.12.2027 -
Luca Franco Arsenal Active 101 / 118 40% 1 20.12.2027 -
Carlos Torres Orenburg Active 107 / 125 40% 1 20.12.2027 -
Mateo Valenzuela Bogota Active 72 / 99 41% 1 28.12.2026 -
Leyner Liñan Barranquilla Active 92 / 105 41% 1 21.12.2026 Needs More Info
Darwin Torres Barranquilla Active 74 / 98 41% 1 01.12.2026 -
Petr Juliš Slovan Liberec Active 114 / 128 40% 1 27.11.2026 -
Ulises Sánchez Gimnasia y Esgrima Active 110 / 136 40% 1 27.11.2026 -
Nicolás Heiz Maipú Active 117 / 120 40% 1 23.11.2026 -
Tomás González Piast Active 113 / 132 40% 3 21.11.2026 -
Facundo González Yenisey Active 76 / 80 40% 1 20.11.2026 -
Facundo Heredia Patronato Active 122 / 119 40% 1 20.11.2026 -
Agustín Módica Gimnasia y Esgrima Active 130 / 109 40% 2 19.11.2026 -
Franco Romero HNK Gorica Active 81 / 116 40% 1 18.11.2026 -
Axel Pérez NK Domzale Active 115 / 104 40% 1 18.11.2026 -
Alejo Antilef Debrecen Active 91 / 92 40% 1 17.11.2026 -
Maximiliano Rodríguez Huachipato Active 103 / 103 40% 5 15.11.2026 -
Elías Torres Racing Club Active 124 / 112 40% 2 15.11.2026 -
Jonathan Pérez Guadalajara Active 111 / 134 40% 2 12.11.2026 -
Juan Cruz Martins Jihlava Active 105 / 116 40% 3 11.11.2026 -
Nicolás Retamar Ferro Carril Oeste Active 118 / 119 40% 1 07.11.2026 -
Néider Barona Altach Active 105 / 120 40% 1 05.11.2026 -
Rômulo Tigres Active 106 / 134 40% 1 05.11.2026 -
Ramón González Almirante Brown Active 101 / 125 40% 1 04.11.2026 -
Elias Manoel Tijuana Active 124 / 92 40% 1 03.11.2026 -
Emiliano Saliadarre Miramar Misiones Active 109 / 107 40% 1 02.11.2026 -
Tomás Orqueida Mattersburg Active 80 / 99 40% 1 02.11.2026 -
Augusto Berrondo Tristán Suárez Active 100 / 114 40% 1 31.10.2026 -
Alexis Gutiérrez Club America Active 107 / 138 40% 2 29.10.2026 -
Renzo Reynaga Patronato Active 124 / 97 40% 1 29.10.2026 -
Alexander Díaz Deportivo Riestra Active 118 / 110 40% 1 27.10.2026 -
Santiago Apa All Boys Active 96 / 114 40% 1 25.10.2026 -
Agustín Alaniz Juventud Active 124 / 110 40% 2 22.10.2026 -
Gianluca Pugliese Güemes Active 115 / 105 40% 1 21.10.2026 -
Facundo Castet Colón Active 109 / 102 40% 1 21.10.2026 -
Matías Viguet Maipú Active 126 / 107 40% 1 18.10.2026 -
Sebastián Cocimano Nueva Chicago Active 112 / 115 40% 1 17.10.2026 -
Lucas Pedraza Defensores Unidos Active 90 / 117 40% 1 17.10.2026 -
Gonzalo Flores Almirante Brown Active 119 / 118 40% 1 09.10.2026 -
Alex Vigo Independiente Rivadavia Active 106 / 127 40% 1 02.10.2026 -
Juan Yangali San Telmo Active 106 / 110 40% 1 02.10.2026 -
Luca Martínez Dupuy Godoy Cruz Active 104 / 118 40% 1 01.10.2026 -
Franco Hanashiro Colegiales Active 103 / 115 40% 2 30.09.2026 -
Matías Gallegos Antofagasta Active 106 / 103 40% 1 30.09.2026 -
Enzo Acosta Estudiantes Active 126 / 99 40% 1 30.09.2026 -
Kevin Isa Luna Central Norte Active 115 / 110 40% 1 28.09.2026 -
Nicolás Laméndola Atlético Tucumán Active 125 / 126 40% 1 26.09.2026 -
Francisco Bonfiglio Boston River Active 117 / 119 40% 1 22.09.2026 -
Cristian Barros Cerro Active 94 / 112 40% 1 22.09.2026 -
Nazareno Fernández Colombo Los Andes Active 116 / 111 40% 1 22.09.2026 -
Leandro Suhr Boston River Active 129 / 126 40% 1 18.09.2026 -
Thiago Vecino O'Higgins Active 104 / 107 40% 3 16.09.2026 -
José Alvarado Leon Active 133 / 132 40% 3 15.09.2026 -
Mariano Bracamonte Deportivo Riestra Active 119 / 112 40% 1 12.09.2026 -
Ezequiel Cañete Huachipato Active 130 / 112 40% 1 12.09.2026 -
José Rivas Gamboa Trujillanos Active 115 / 91 40% 1 12.09.2026 -
José Balza Deportivo Tachira Active 114 / 101 40% 2 08.09.2026 -
Marcus Vinicius Deportivo Pereira Active 124 / 122 40% 1 08.09.2026 -
Santiago Toloza O'Higgins Active 108 / 115 40% 1 07.09.2026 -
Christian Larotonda Caracas Active 123 / 113 40% 3 06.09.2026 -
Diego Valencia Universidad Catolica Active 116 / 113 40% 1 06.09.2026 -
Ronny Maza Aragua Active 87 / 112 40% 1 06.09.2026 -
Lautaro Mora Huracán Active 99 / 127 40% 1 06.09.2026 -
Agustín Venezia Iquique Active 109 / 118 40% 2 04.09.2026 -
Ángelo Lucena Carabobo Active 107 / 99 40% 1 03.09.2026 -
Juan Francisco Rossel Universidad Catolica Active 90 / 107 40% 1 31.08.2026 -
Daniel Amador Chiapas Active 85 / 114 40% 1 30.08.2026 -
Sergio Riffo NK Zavrc Active 96 / 92 40% 1 29.08.2026 -
Jimmy Evans Universidad Catolica Active 111 / 88 40% 1 29.08.2026 -
Enzo Arreguín IFK Norrkoping Active 90 / 114 40% 1 29.08.2026 -
César Munder Palestino Active 93 / 121 40% 2 27.08.2026 -
Mauricio Cardillo San Lorenzo Active 101 / 129 40% 1 27.08.2026 -
Cristhián Rivas Estudiantes de Merida Active 107 / 113 40% 1 22.08.2026 -
Kevin Quevedo Universitario Active 101 / 112 40% 1 20.08.2026 -
Alan Cervantes Club America Active 143 / 123 40% 1 20.08.2026 -
José Juan Macías Pumas UNAM Active 114 / 92 40% 1 19.08.2026 -
Jonathan Vega Dorados Active 89 / 96 40% 1 19.08.2026 -
Jorge Rodríguez Atlas Active 114 / 107 40% 1 19.08.2026 -
Ignacio Schor O'Higgins Active 114 / 131 40% 1 16.08.2026 -
Sebastián Zeballos Deportivo La Guaira Active 99 / 106 40% 1 16.08.2026 -
Ricardo Echeverría Santos Laguna Active 121 / 110 40% 1 15.08.2026 -
Mauro Smarra Deportivo Riestra Active 117 / 97 40% 1 15.08.2026 -
Julián Brea Cobresal Active 109 / 89 40% 1 11.08.2026 -
Valentín Robaldo Alianza Atletico Active 86 / 97 40% 1 11.08.2026 -
Kavier Ortiz Metropolitanos Active 78 / 97 40% 1 10.08.2026 -
Catriel Cabellos Sporting Cristal Active 107 / 107 40% 1 05.08.2026 -
Arnaldo Castillo O'Higgins Active 108 / 101 40% 1 05.08.2026 -
Luciano Arriagada Huachipato Active 103 / 96 40% 1 04.08.2026 -
Junior Paredes Trujillanos Active 86 / 114 40% 1 03.08.2026 -
Agustín Bianciotti Metropolitanos Active 87 / 95 40% 1 01.08.2026 -